Tracking 19817 objects as of 19-Aug-2019
HD Live streaming from Space Station
objects crossing your sky now

AUREOLE 2

Track AUREOLE 2 now!
10-day predictions
AUREOLE 2 is classified as:


NORAD ID: 7003
Int'l Code: 1973-107A
Perigee: 374.7 km
Apogee: 912.1 km
Inclination: 73.9 °
Period: 97.4 minutes
Semi major axis: 7014 km
RCS: 2.1042 m2 (large)
Launch date: December 26, 1973
Source: France (FR)
Launch site: PLESETSK MISSILE AND SPACE COMPLEX (PKMTR)
aabbcc
Your satellite tracking list
Your tracking list is empty




NASA's NSSDC Master Catalog

Two Line Element Set (TLE):
1  7003U 73107A   19230.89401787 +.00000814 +00000-0 +34236-4 0  9992
2  7003 073.9237 258.4502 0383085 064.9643 299.0790 14.77806965330373
Source of the keplerian elements: AFSPC